Location: Unspecified
(49.8670°N, 0.0000°E)
Time: 17:16:23
(UTC+00:00)

Vanguard 1 - Pass Details

Date: 29 June 2019
Orbit: 653 x 3830 km, 34.3° (Epoch: 18 July)

Event Time Altitude Azimuth Distance (km) Brightness Sun altitude
Rises 20:44:51 0° 170° (S) 7,749 14.1 -4.7°
Reaches altitude 10° 20:57:55 10° 141° (SE) 6,926 13.7 -6.2°
Maximum altitude 21:02:17 11° 129° (SE) 6,797 13.7 -6.6°
Drops below altitude 10° 21:06:33 10° 118° (ESE) 6,764 13.7 -7.1°
Sets 21:18:12 0° 89° (E) 7,197 14.1 -8.3°
